Showing default

KUIPER-00410, 68926

Orbit data source: Space-Track

KUIPER-00410, 68926 is a payload satellite owned by Kuiper Systems (US) in LEO that was launched on Thu, 30 Apr 2026 UTC via an ARIANE 64 launch vehicle from the French Guiana (FRGUI). Payload-class satellites include a variety of spacecraft equipped with specific instruments for various scientific and technological missions. These include communications satellites like Starlink; space stations such as the ISS; scientific satellites like the Hubble; Earth observation satellites from companies like Planet Labs, Umbra, and HawkEye 360; GPS; miniature CubeSats for education and research; and military/defense satellites.

Loading next visibility...
Identifier
68926, 2026-098H
Orbit
LEO
Country
Flag of USUS
Related business
Manufacturer
Kuiper Systems
Mission
Operational spacecraft
Bus & Motor
KUIPER, Unknown motor
Mass
~490 kg wet, ~490 kg dry
Launch date (UTC)
2026-04-30 (2 months ago)
Launch vehicle
ARIANE 64
Launch site
French Guiana (FRGUI)
Object type
Payload
Rocket body
Debris
Shape & HBR
Unknown shape, 3.4 m
Radar Cross Section
Large (>1 m²)

Expand to show TLE details & history
Last TLE update: 23 hours ago

TLE from 23 hours ago
0 KUIPER-00410
1 68926U 26098H   26170.90977861  .00007532  00000-0  28802-3 0  9999
2 68926  51.8741  56.2029 0013704 159.7006 200.4524 15.27505429  7741
Epoch: 2026-06-19T21:50Z
TLE epoch observation values (Epoch: 2026-06-19T21:50:04.871Z)
Latitude
-0.00004°
Longitude
-179.44941°
Altitude
492.844 km
Speed
7.615 km/s
True Right ascension
03h 44m 48s
True Declination
0° 00' 00"
Sunlit
Object was in daylight at epoch
Visualization orbit readout
Latitude
Unknown
Longitude
Unknown
Altitude
Unknown
Speed
Unknown
Apparent Right ascension
Unknown
Apparent Declination
Unknown
Sunlit
N/A
Visualization observer readout
Local Sidereal Time
07:21:55
Azimuth
Unknown
Elevation
Unknown
Doppler factor
Unknown
Orbital elements
Apogee altitude
493.141 km
Perigee altitude
474.334 km
Semi-major axis
6,861.874 km
Eccentricity
0.00137
Inclination
51.8741°
RAAN
56.2029°
Arg. of periapsis
159.7006°
True anomaly
200.39761°
Mean anomaly
200.4524°
Eccentric anomaly
200.425°
Mean motion
3.81838 °/min
Orbital period
94.28 mins
BSTAR
0.00028802
Loading maneuver chart data...
Computing Atmospheric mass density...
Loading historical data...
Loading historical data...
Loading historical data...
Loading historical data...
Loading historical data...
Loading historical data...
Loading historical data...

Documentation

Showing up to 5 results
|